When you browse on this site, cookies collect data to enhance your experience and personalize the content and advertising you see.
Visit our Privacy Policy to learn more. By continuing to use the site, you agree to this use of cookies and data.
EN

Hourly Weather Kantabanji

Today, 11 August, Tuesday

Time Temperature Precipitation Wind Pressure Humidity
00:00 +27°C° 0 mm 2 mps 726 mmHg 87%
01:00 +26°C° 0 mm 2 mps 726 mmHg 88%
02:00 +26°C° 0 mm 2 mps 726 mmHg 88%
03:00 +26°C° 0 mm 2 mps 726 mmHg 89%
04:00 +26°C° 0 mm 2 mps 726 mmHg 89%
05:00 +26°C° 0 mm 2 mps 726 mmHg 88%
06:00 +26°C° 0 mm 2 mps 726 mmHg 90%
07:00 +26°C° 0 mm 2 mps 726 mmHg 89%
08:00 +27°C° 0 mm 2 mps 727 mmHg 87%
09:00 +27°C° 0 mm 3 mps 727 mmHg 86%
10:00 +27°C° 0.1 mm 3 mps 727 mmHg 85%
11:00 +28°C° 0.1 mm 4 mps 727 mmHg 84%
12:00 +29°C° 0 mm 5 mps 727 mmHg 78%
13:00 +29°C° 0 mm 5 mps 727 mmHg 77%
14:00 +29°C° 0 mm 5 mps 726 mmHg 76%
15:00 +30°C° 0 mm 5 mps 725 mmHg 75%
16:00 +30°C° 0 mm 4 mps 725 mmHg 76%
17:00 +30°C° 0 mm 4 mps 725 mmHg 76%
18:00 +30°C° 0 mm 4 mps 726 mmHg 75%
19:00 +29°C° 0 mm 3 mps 726 mmHg 78%
20:00 +28°C° 0 mm 2 mps 727 mmHg 81%
21:00 +27°C° 0 mm 2 mps 727 mmHg 84%
22:00 +27°C° 0 mm 2 mps 727 mmHg 85%
23:00 +27°C° 0 mm 2 mps 727 mmHg 86%

Tomorrow, 12 August, Wednesday

Time Temperature Precipitation Wind Pressure Humidity
00:00 +27°C° 0 mm 2 mps 728 mmHg 87%
01:00 +27°C° 0 mm 2 mps 727 mmHg 87%
02:00 +26°C° 0 mm 2 mps 727 mmHg 87%
03:00 +26°C° 0 mm 2 mps 726 mmHg 87%
04:00 +26°C° 0 mm 2 mps 726 mmHg 87%
05:00 +26°C° 0 mm 2 mps 726 mmHg 87%
06:00 +26°C° 0 mm 2 mps 726 mmHg 87%
07:00 +27°C° 0 mm 2 mps 727 mmHg 84%
08:00 +28°C° 0 mm 3 mps 727 mmHg 81%
09:00 +29°C° 0 mm 3 mps 728 mmHg 78%
10:00 +30°C° 1.4 mm 3 mps 727 mmHg 75%
11:00 +33°C° 1.4 mm 4 mps 727 mmHg 72%
12:00 +34°C° 1.4 mm 4 mps 727 mmHg 69%
13:00 +34°C° 1.9 mm 4 mps 726 mmHg 69%
14:00 +34°C° 1.9 mm 4 mps 725 mmHg 69%
15:00 +34°C° 1.9 mm 3 mps 724 mmHg 69%
16:00 +34°C° 2.9 mm 3 mps 724 mmHg 72%
17:00 +32°C° 2.9 mm 2 mps 724 mmHg 75%
18:00 +32°C° 2.9 mm 1 mps 724 mmHg 78%
19:00 +31°C° 3.8 mm 2 mps 724 mmHg 80%
20:00 +30°C° 3.8 mm 3 mps 725 mmHg 82%
21:00 +29°C° 3.8 mm 4 mps 726 mmHg 84%
22:00 +28°C° 2.1 mm 4 mps 726 mmHg 87%
23:00 +28°C° 2.1 mm 4 mps 726 mmHg 89%

Day after tomorrow, 13 August, Thursday

Time Temperature Precipitation Wind Pressure Humidity
00:00 +28°C° 2.1 mm 4 mps 726 mmHg 91%
01:00 +27°C° 0.1 mm 4 mps 725 mmHg 91%
02:00 +27°C° 0.1 mm 3 mps 725 mmHg 92%
03:00 +27°C° 0.1 mm 3 mps 725 mmHg 92%
04:00 +27°C° 0 mm 3 mps 725 mmHg 92%
05:00 +27°C° 0 mm 2 mps 724 mmHg 92%
06:00 +27°C° 0 mm 2 mps 724 mmHg 93%
07:00 +27°C° 0 mm 2 mps 725 mmHg 91%
08:00 +28°C° 0 mm 2 mps 725 mmHg 89%
09:00 +28°C° 0 mm 3 mps 726 mmHg 87%
10:00 +30°C° 0.3 mm 3 mps 726 mmHg 82%
11:00 +31°C° 0.3 mm 3 mps 725 mmHg 78%
12:00 +33°C° 0.3 mm 3 mps 725 mmHg 74%
13:00 +33°C° 1.9 mm 4 mps 725 mmHg 74%
14:00 +33°C° 1.9 mm 4 mps 724 mmHg 73%
15:00 +33°C° 1.9 mm 4 mps 723 mmHg 73%
16:00 +32°C° 3 mm 4 mps 723 mmHg 77%
17:00 +30°C° 3 mm 4 mps 723 mmHg 81%
18:00 +29°C° 3 mm 4 mps 723 mmHg 85%
19:00 +29°C° 0.6 mm 4 mps 724 mmHg 87%
20:00 +28°C° 0.6 mm 4 mps 724 mmHg 88%
21:00 +27°C° 0.6 mm 4 mps 725 mmHg 90%
22:00 +27°C° 0.2 mm 4 mps 725 mmHg 90%
23:00 +27°C° 0.2 mm 3 mps 725 mmHg 90%

14 August, Friday

Time Temperature Precipitation Wind Pressure Humidity
00:00 +27°C° 0.2 mm 3 mps 726 mmHg 90%
01:00 +27°C° 0 mm 3 mps 725 mmHg 89%
02:00 +26°C° 0 mm 4 mps 725 mmHg 89%
03:00 +26°C° 0 mm 4 mps 725 mmHg 89%
04:00 +26°C° 0 mm 3 mps 725 mmHg 89%
05:00 +26°C° 0 mm 3 mps 725 mmHg 89%
06:00 +26°C° 0 mm 3 mps 725 mmHg 89%
07:00 +27°C° 0 mm 3 mps 726 mmHg 87%
08:00 +27°C° 0 mm 4 mps 726 mmHg 84%
09:00 +28°C° 0 mm 4 mps 726 mmHg 82%
10:00 +29°C° 0.5 mm 5 mps 726 mmHg 79%
11:00 +30°C° 0.5 mm 5 mps 726 mmHg 76%
12:00 +32°C° 0.5 mm 5 mps 726 mmHg 73%
13:00 +32°C° 1.2 mm 5 mps 726 mmHg 73%
14:00 +32°C° 1.2 mm 6 mps 725 mmHg 72%
15:00 +32°C° 1.2 mm 6 mps 724 mmHg 72%
16:00 +30°C° 0.8 mm 5 mps 724 mmHg 75%
17:00 +30°C° 0.8 mm 5 mps 724 mmHg 77%
18:00 +29°C° 0.8 mm 4 mps 724 mmHg 80%
19:00 +28°C° 0 mm 4 mps 725 mmHg 82%
20:00 +27°C° 0 mm 4 mps 725 mmHg 83%
21:00 +27°C° 0 mm 4 mps 726 mmHg 85%
22:00 +27°C° 0 mm 3 mps 726 mmHg 85%
23:00 +26°C° 0 mm 3 mps 726 mmHg 85%

15 August, Saturday

Time Temperature Precipitation Wind Pressure Humidity
00:00 +26°C° 0 mm 3 mps 726 mmHg 85%
01:00 +26°C° 0.1 mm 3 mps 726 mmHg 86%
02:00 +26°C° 0.1 mm 3 mps 725 mmHg 86%
03:00 +26°C° 0.1 mm 3 mps 725 mmHg 87%
04:00 +26°C° 0.1 mm 3 mps 725 mmHg 87%
05:00 +26°C° 0.1 mm 3 mps 725 mmHg 87%
06:00 +26°C° 0.1 mm 2 mps 725 mmHg 87%
07:00 +26°C° 0.4 mm 3 mps 725 mmHg 87%
08:00 +27°C° 0.4 mm 3 mps 726 mmHg 87%
09:00 +27°C° 0.4 mm 3 mps 726 mmHg 87%
10:00 +27°C° 0.1 mm 3 mps 726 mmHg 86%
11:00 +27°C° 0.1 mm 3 mps 726 mmHg 86%
12:00 +27°C° 0.1 mm 4 mps 726 mmHg 85%
13:00 +27°C° 0.2 mm 4 mps 725 mmHg 85%
14:00 +27°C° 0.2 mm 4 mps 725 mmHg 85%
15:00 +27°C° 0.2 mm 4 mps 724 mmHg 85%
16:00 +27°C° 0.1 mm 4 mps 724 mmHg 86%
17:00 +27°C° 0.1 mm 4 mps 724 mmHg 86%
18:00 +27°C° 0.1 mm 3 mps 724 mmHg 87%
19:00 +26°C° 0.4 mm 3 mps 725 mmHg 89%
20:00 +26°C° 0.4 mm 3 mps 725 mmHg 91%
21:00 +26°C° 0.4 mm 3 mps 726 mmHg 93%
22:00 +25°C° 0.5 mm 3 mps 726 mmHg 93%
23:00 +25°C° 0.5 mm 3 mps 726 mmHg 94%

16 August, Sunday

Time Temperature Precipitation Wind Pressure Humidity
00:00 +25°C° 0.5 mm 4 mps 725 mmHg 94%
01:00 +25°C° 1 mm 3 mps 725 mmHg 94%
02:00 +25°C° 1 mm 3 mps 724 mmHg 94%
03:00 +25°C° 1 mm 3 mps 724 mmHg 95%
04:00 +25°C° 1.9 mm 3 mps 724 mmHg 95%
05:00 +25°C° 1.9 mm 3 mps 724 mmHg 96%
06:00 +25°C° 1.9 mm 3 mps 724 mmHg 96%
07:00 +25°C° 2.8 mm 3 mps 724 mmHg 96%
08:00 +26°C° 2.8 mm 3 mps 725 mmHg 96%
09:00 +26°C° 2.8 mm 3 mps 725 mmHg 96%
10:00 +26°C° 1.8 mm 3 mps 725 mmHg 96%
11:00 +26°C° 1.8 mm 3 mps 725 mmHg 95%
12:00 +26°C° 1.8 mm 4 mps 725 mmHg 95%
13:00 +26°C° 2.8 mm 4 mps 724 mmHg 94%
14:00 +26°C° 2.8 mm 5 mps 724 mmHg 94%
15:00 +26°C° 2.8 mm 5 mps 723 mmHg 94%
16:00 +26°C° 1.3 mm 5 mps 723 mmHg 93%
17:00 +25°C° 1.3 mm 5 mps 723 mmHg 92%
18:00 +25°C° 1.3 mm 5 mps 723 mmHg 92%
19:00 +25°C° 0.3 mm 5 mps 724 mmHg 91%
20:00 +25°C° 0.3 mm 5 mps 724 mmHg 91%
21:00 +25°C° 0.3 mm 5 mps 725 mmHg 91%
22:00 +25°C° 0.1 mm 4 mps 725 mmHg 91%
23:00 +25°C° 0.1 mm 4 mps 725 mmHg 91%
Show more